IW0UWF-4 Weather Reports


time (UTC)temp
C
wind
direction
speed
KPH
gust
KPH
rain 1hr
cm
rain 24hr
cm
rain mn
cm
humidity
%
barometer
mb
20260505171704 17 231 4.8 6.4 0.00 0.03 0.00 75 1005.4
20260505171604 17 249 4.8 6.4 0.00 0.03 0.00 75 1005.4
20260505171504 17 269 4.8 6.4 0.00 0.03 0.00 75 1005.2
20260505171404 17 285 4.8 6.4 0.00 0.03 0.00 74 1005.4
20260505171304 17 292 6.4 6.4 0.00 0.03 0.00 74 1005.4
20260505171203 17 298 6.4 6.4 0.00 0.03 0.00 74 1005.3
20260505171103 17 305 6.4 6.4 0.00 0.03 0.00 74 1005.2
20260505171003 17 305 6.4 6.4 0.00 0.03 0.00 74 1005.4
20260505170903 17 304 6.4 6.4 0.00 0.03 0.00 74 1005.4
20260505170803 17 298 6.4 6.4 0.00 0.03 0.00 71 1005.3
20260505170703 17 296 6.4 6.4 0.00 0.03 0.00 71 1005.3
20260505170603 17 291 6.4 6.4 0.00 0.03 0.00 71 1005.5
20260505170503 17 285 6.4 6.4 0.00 0.03 0.00 71 1005.3
20260505170403 17 276 4.8 6.4 0.00 0.03 0.00 71 1005.3
20260505170303 17 264 4.8 6.4 0.00 0.03 0.00 71 1005.4
20260505170203 17 251 4.8 6.4 0.00 0.03 0.00 71 1005.3
20260505170103 17 239 4.8 6.4 0.00 0.03 0.00 71 1005.3
20260505170003 17 237 3.2 6.4 0.00 0.03 0.00 71 1005.3
20260505165903 17 234 3.2 6.4 0.00 0.03 0.00 71 1005.3
20260505165804 17 238 3.2 6.4 0.00 0.03 0.00 71 1005.3
20260505165704 17 223 3.2 6.4 0.00 0.03 0.00 71 1005.4
20260505165604 17 220 3.2 6.4 0.00 0.03 0.00 71 1005.4
20260505165504 17 217 3.2 6.4 0.00 0.03 0.00 71 1005.5
20260505165404 17 215 3.2 6.4 0.00 0.03 0.00 71 1005.5
20260505165306 17 213 3.2 6.4 0.00 0.03 0.00 71 1005.4
20260505165204 17 222 3.2 6.4 0.00 0.03 0.00 71 1005.2
20260505165104 17 216 3.2 6.4 0.00 0.03 0.00 71 1005.3
20260505165004 17 214 3.2 6.4 0.00 0.03 0.00 71 1005.3
20260505164904 17 216 3.2 6.4 0.00 0.03 0.00 71 1005.3
20260505164804 17 213 3.2 6.4 0.00 0.03 0.00 71 1005.5
20260505164704 17 209 3.2 6.4 0.00 0.03 0.00 71 1005.5
20260505164604 17 202 1.6 6.4 0.00 0.03 0.00 71 1005.4
20260505164504 17 192 1.6 6.4 0.00 0.03 0.00 71 1005.5
20260505164403 17 182 1.6 6.4 0.00 0.03 0.00 71 1005.4
20260505164304 17 173 1.6 3.2 0.00 0.03 0.00 71 1005.4
20260505164203 17 155 1.6 3.2 0.00 0.03 0.00 71 1005.3
20260505164103 17 160 1.6 3.2 0.00 0.03 0.00 71 1005.4
20260505164003 17 168 1.6 3.2 0.00 0.03 0.00 71 1005.4
20260505163903 17 174 1.6 6.4 0.00 0.03 0.00 71 1005.3
20260505163803 17 182 1.6 6.4 0.00 0.03 0.00 71 1005.4
20260505163703 17 186 3.2 6.4 0.00 0.03 0.00 71 1005.4
20260505163603 17 197 3.2 6.4 0.00 0.03 0.00 71 1005.4
20260505163503 17 203 3.2 6.4 0.00 0.03 0.00 71 1005.3
20260505163403 17 205 3.2 6.4 0.00 0.03 0.00 71 1005.3
20260505163303 17 202 3.2 6.4 0.00 0.03 0.00 71 1005.4
20260505163204 17 207 4.8 9.7 0.00 0.03 0.00 71 1005.2
20260505163104 17 217 4.8 9.7 0.00 0.03 0.00 70 1005.4
20260505163004 17 220 4.8 9.7 0.00 0.03 0.00 70 1005.4
20260505162904 17 223 4.8 9.7 0.00 0.03 0.00 70 1005.3
20260505162804 17 226 4.8 9.7 0.00 0.03 0.00 70 1005.3
20260505162704 17 232 4.8 9.7 0.00 0.03 0.00 70 1005.2
20260505162604 17 224 4.8 9.7 0.00 0.03 0.00 70 1005.4
20260505162504 17 224 4.8 9.7 0.00 0.03 0.00 70 1005.3
20260505162404 17 228 6.4 9.7 0.00 0.03 0.00 70 1005.4
20260505162306 18 232 6.4 9.7 0.00 0.03 0.00 70 1005.4
20260505162204 18 235 6.4 9.7 0.00 0.03 0.00 70 1005.2
20260505162104 18 206 4.8 9.7 0.00 0.03 0.00 70 1005.3
20260505161703 18 218 8.0 12.9 0.00 0.03 0.00 70 1005.3
20260505161603 18 213 9.7 12.9 0.00 0.03 0.00 70 1005.3
20260505161503 18 207 9.7 12.9 0.00 0.03 0.00 70 1005.3
20260505161403 18 200 9.7 12.9 0.00 0.03 0.00 70 1005.3
20260505161304 18 192 11.3 12.9 0.00 0.03 0.00 70 1005.4
20260505161204 19 188 11.3 12.9 0.00 0.03 0.00 70 1005.3
20260505161104 19 188 11.3 12.9 0.00 0.03 0.00 70 1005.3
20260505161004 19 193 11.3 12.9 0.00 0.03 0.00 70 1005.2
20260505160904 19 192 11.3 12.9 0.00 0.03 0.00 71 1005.3
20260505160804 19 194 11.3 12.9 0.00 0.03 0.00 71 1005.4
20260505160704 18 195 9.7 12.9 0.00 0.03 0.00 71 1005.3
20260505160603 18 200 9.7 12.9 0.00 0.03 0.00 71 1005.4
20260505160503 18 215 9.7 12.9 0.00 0.03 0.00 71 1005.5
20260505160403 18 230 8.0 12.9 0.00 0.03 0.00 71 1005.4
20260505160303 18 248 8.0 12.9 0.00 0.03 0.00 71 1005.4
20260505160203 18 271 8.0 12.9 0.00 0.03 0.00 71 1005.5
20260505153304 20 273 8.0 11.3 0.00 0.03 0.00 69 1005.4
20260505153204 20 271 6.4 11.3 0.00 0.03 0.00 69 1005.4
20260505153104 20 269 6.4 11.3 0.00 0.03 0.00 70 1005.4
20260505153004 19 267 6.4 11.3 0.00 0.03 0.00 70 1005.4
20260505152904 19 274 6.4 11.3 0.00 0.03 0.00 70 1005.3
20260505152804 19 281 6.4 9.7 0.00 0.03 0.00 70 1005.3
20260505152703 19 285 6.4 9.7 0.00 0.03 0.00 70 1005.5
20260505152604 18 280 6.4 9.7 0.00 0.03 0.00 70 1005.4
20260505152504 18 275 8.0 9.7 0.00 0.03 0.00 69 1005.5
20260505152403 18 274 6.4 9.7 0.00 0.03 0.00 69 1005.5
20260505152305 18 256 6.4 9.7 0.00 0.03 0.00 69 1005.4
20260505152203 18 247 6.4 9.7 0.00 0.03 0.00 68 1005.5
20260505152103 18 249 6.4 9.7 0.00 0.03 0.00 68 1005.6
20260505151704 18 266 9.7 12.9 0.00 0.03 0.00 66 1005.7
20260505151603 18 262 9.7 12.9 0.00 0.03 0.00 65 1005.5
20260505151504 18 253 9.7 12.9 0.00 0.03 0.00 65 1005.7
20260505151404 19 243 8.0 12.9 0.00 0.03 0.00 63 1005.7
20260505151303 19 239 8.0 12.9 0.00 0.03 0.00 63 1005.7
20260505151203 19 237 8.0 12.9 0.00 0.03 0.00 63 1005.6
20260505151103 19 234 8.0 12.9 0.00 0.03 0.00 63 1005.7
20260505151003 20 227 8.0 12.9 0.00 0.03 0.00 62 1005.6
20260505150903 20 231 8.0 12.9 0.00 0.03 0.00 62 1005.6
20260505150803 20 232 8.0 12.9 0.00 0.03 0.00 62 1005.7
20260505150703 20 232 6.4 8.0 0.00 0.03 0.00 63 1005.7
20260505150603 20 231 6.4 8.0 0.00 0.03 0.00 63 1005.5
20260505150503 20 229 6.4 8.0 0.00 0.03 0.00 63 1005.7
20260505150403 20 228 6.4 8.0 0.00 0.03 0.00 63 1005.6
20260505150304 20 223 6.4 8.0 0.00 0.03 0.00 63 1005.5
20260505150204 20 222 6.4 8.0 0.00 0.03 0.00 63 1005.6
20260505150104 20 220 6.4 8.0 0.00 0.03 0.00 64 1005.6
20260505140604 21 231 11.3 12.9 0.00 0.03 0.00 61 1005.8
20260505140503 21 234 11.3 12.9 0.00 0.03 0.00 61 1005.9
20260505140403 21 241 11.3 12.9 0.00 0.03 0.00 61 1005.8
20260505140303 21 244 11.3 12.9 0.00 0.03 0.00 61 1005.9
20260505140203 21 244 11.3 12.9 0.00 0.03 0.00 61 1005.8
20260505130303 22 272 9.7 17.7 0.00 0.03 0.00 55 1006.1
20260505130203 22 283 9.7 16.1 0.00 0.03 0.00 56 1006.0
20260505130103 22 277 8.0 16.1 0.00 0.03 0.00 56 1006.1
20260505125004 22 254 9.7 12.9 0.00 0.03 0.00 53 1006.1
20260505124904 22 264 8.0 12.9 0.00 0.03 0.00 52 1006.1
20260505124803 22 264 8.0 12.9 0.00 0.03 0.00 52 1006.1
20260505124704 23 258 6.4 12.9 0.00 0.03 0.00 52 1006.1
20260505124604 23 263 6.4 12.9 0.00 0.03 0.00 53 1006.2
20260505124503 23 262 6.4 9.7 0.00 0.03 0.00 53 1006.1
20260505124403 23 259 4.8 9.7 0.00 0.03 0.00 53 1006.1
20260505124303 23 252 4.8 8.0 0.00 0.03 0.00 53 1006.2
20260505124203 23 255 4.8 8.0 0.00 0.03 0.00 53 1006.2
20260505124103 23 257 4.8 8.0 0.00 0.03 0.00 53 1006.2
20260505124003 23 258 4.8 6.4 0.00 0.03 0.00 53 1006.1
20260505123903 23 251 4.8 6.4 0.00 0.03 0.00 53 1006.1
20260505123803 23 250 4.8 6.4 0.00 0.03 0.00 53 1006.1
20260505123703 23 243 4.8 6.4 0.00 0.03 0.00 53 1006.1
20260505123604 23 234 4.8 6.4 0.00 0.03 0.00 53 1006.2
20260505123504 23 232 4.8 6.4 0.00 0.03 0.00 53 1006.1
20260505123404 23 227 4.8 6.4 0.00 0.03 0.00 54 1006.1
20260505123304 23 245 4.8 12.9 0.00 0.03 0.00 54 1006.1
20260505123204 23 240 6.4 12.9 0.00 0.03 0.00 54 1006.1
20260505123104 23 218 6.4 12.9 0.00 0.03 0.00 54 1006.2
20260505123004 23 229 6.4 12.9 0.00 0.03 0.00 56 1006.2
20260505122903 23 235 6.4 12.9 0.00 0.03 0.00 56 1006.2
20260505122803 23 215 6.4 12.9 0.00 0.03 0.00 57 1006.1
20260505122703 23 209 6.4 12.9 0.00 0.03 0.00 57 1006.2
20260505122603 23 273 6.4 12.9 0.00 0.03 0.00 56 1006.2
20260505122503 22 224 8.0 12.9 0.00 0.03 0.00 55 1006.2
20260505122403 22 236 8.0 12.9 0.00 0.03 0.00 55 1006.1
20260505122305 22 188 6.4 12.9 0.00 0.03 0.00 54 1006.3
20260505122203 22 212 6.4 9.7 0.00 0.03 0.00 58 1006.3
20260505122103 22 250 6.4 9.7 0.00 0.03 0.00 58 1006.2
20260505121704 22 221 8.0 14.5 0.00 0.03 0.00 56 1006.3
20260505121604 22 223 8.0 14.5 0.00 0.03 0.00 56 1006.3
20260505121504 22 236 8.0 14.5 0.00 0.03 0.00 57 1006.3
20260505121404 22 250 8.0 9.7 0.00 0.03 0.00 59 1006.3
20260505121304 22 249 8.0 9.7 0.00 0.03 0.00 60 1006.3
20260505121204 22 255 8.0 9.7 0.00 0.03 0.00 60 1006.5
20260505121104 22 269 8.0 9.7 0.00 0.03 0.00 61 1006.4
20260505121004 22 282 8.0 9.7 0.00 0.03 0.00 64 1006.3
20260505120903 21 290 8.0 9.7 0.00 0.03 0.00 64 1006.4
20260505120805 21 288 8.0 9.7 0.00 0.03 0.00 64 1006.5
20260505120704 21 298 8.0 9.7 0.00 0.03 0.00 65 1006.3
20260505120604 20 305 8.0 9.7 0.00 0.03 0.00 66 1006.3
20260505120503 20 305 8.0 9.7 0.00 0.03 0.00 66 1006.4
20260505120403 20 301 8.0 9.7 0.00 0.03 0.00 66 1006.5
20260505120303 20 294 8.0 9.7 0.00 0.03 0.00 66 1006.4
20260505120204 20 287 8.0 9.7 0.00 0.03 0.00 66 1006.5
20260505120103 20 276 8.0 9.7 0.00 0.03 0.00 66 1006.4
20260505120004 20 263 8.0 9.7 0.00 0.03 0.00 66 1006.6
20260505115903 20 253 8.0 9.7 0.00 0.03 0.00 67 1006.4
20260505115803 20 263 8.0 9.7 0.00 0.03 0.00 67 1006.6
20260505115704 20 260 8.0 9.7 0.00 0.03 0.00 67 1006.5
20260505115604 19 262 8.0 9.7 0.00 0.03 0.00 67 1006.6
20260505115504 19 259 8.0 9.7 0.00 0.03 0.00 67 1006.6
20260505115404 19 260 8.0 9.7 0.00 0.03 0.00 68 1006.6
20260505115305 19 263 8.0 9.7 0.00 0.03 0.00 68 1006.6
20260505115204 19 268 8.0 9.7 0.00 0.03 0.00 68 1006.8
20260505115104 19 268 8.0 9.7 0.00 0.03 0.00 68 1006.6
20260505115005 19 268 8.0 9.7 0.00 0.03 0.00 68 1006.6
20260505114904 19 269 8.0 9.7 0.00 0.03 0.00 67 1006.6
20260505114803 19 257 8.0 12.9 0.00 0.03 0.00 67 1006.6
20260505114704 19 249 8.0 12.9 0.00 0.03 0.00 67 1006.6
20260505114603 19 244 8.0 12.9 0.00 0.03 0.00 67 1006.5
20260505114503 19 242 8.0 12.9 0.00 0.03 0.00 67 1006.7
20260505114403 19 242 9.7 12.9 0.00 0.03 0.00 67 1006.6
20260505114303 19 237 9.7 12.9 0.00 0.03 0.00 67 1006.6
20260505114203 19 234 9.7 12.9 0.00 0.03 0.00 66 1006.6
20260505114103 19 229 11.3 12.9 0.00 0.03 0.00 66 1006.6
20260505114003 19 239 11.3 12.9 0.00 0.03 0.00 66 1006.7
20260505113903 19 243 11.3 12.9 0.00 0.03 0.00 66 1006.6
20260505113803 20 245 9.7 12.9 0.00 0.03 0.00 66 1006.6
20260505113704 20 245 9.7 12.9 0.00 0.03 0.00 66 1006.7
20260505113604 20 249 9.7 12.9 0.00 0.03 0.00 66 1006.6
20260505113504 20 248 9.7 12.9 0.00 0.03 0.00 65 1006.6
20260505113404 20 239 9.7 12.9 0.00 0.03 0.00 65 1006.6
20260505113304 20 224 9.7 14.5 0.00 0.03 0.00 65 1006.7
20260505113204 20 225 9.7 14.5 0.00 0.03 0.00 66 1006.5
20260505113104 20 229 8.0 16.1 0.00 0.03 0.00 66 1006.6
20260505113004 20 228 9.7 16.1 0.00 0.03 0.00 67 1006.7
20260505112904 20 228 9.7 16.1 0.00 0.03 0.00 67 1006.7
20260505112804 20 229 9.7 16.1 0.00 0.03 0.00 67 1006.6
20260505112704 20 230 9.7 16.1 0.00 0.03 0.00 67 1006.6
20260505112604 20 220 11.3 16.1 0.00 0.03 0.00 67 1006.6
20260505112503 20 214 11.3 16.1 0.00 0.03 0.00 67 1006.8
20260505112403 20 225 11.3 16.1 0.00 0.03 0.00 68 1006.5
20260505112305 20 254 11.3 16.1 0.00 0.03 0.00 69 1006.8
20260505112203 20 244 11.3 16.1 0.00 0.03 0.00 70 1006.8
20260505112103 20 262 11.3 16.1 0.00 0.03 0.00 70 1006.6
20260505111703 20 247 8.0 14.5 0.00 0.03 0.00 70 1006.6
20260505111603 19 249 9.7 14.5 0.00 0.03 0.00 70 1006.6
20260505111503 19 247 8.0 14.5 0.00 0.03 0.00 70 1006.7
20260505111403 19 245 8.0 14.5 0.00 0.03 0.00 70 1006.7
20260505111303 19 249 9.7 14.5 0.00 0.03 0.00 70 1006.7
20260505111203 19 257 9.7 14.5 0.00 0.03 0.00 70 1006.7
20260505111103 19 255 9.7 14.5 0.00 0.03 0.00 70 1006.7
20260505111004 19 256 9.7 14.5 0.00 0.03 0.00 70 1006.7
20260505110904 19 261 9.7 14.5 0.00 0.03 0.00 70 1006.8
20260505110804 19 258 9.7 14.5 0.00 0.03 0.00 71 1006.8
20260505110704 19 268 9.7 14.5 0.00 0.03 0.00 71 1006.7
20260505110604 18 264 9.7 16.1 0.00 0.03 0.00 71 1006.9
20260505110504 18 260 9.7 16.1 0.00 0.03 0.00 71 1006.7
20260505110404 18 251 9.7 16.1 0.00 0.03 0.00 71 1006.7
20260505110304 18 249 9.7 16.1 0.00 0.03 0.00 71 1006.8
20260505110204 18 243 9.7 16.1 0.00 0.03 0.00 71 1006.7
20260505110104 18 250 9.7 16.1 0.00 0.03 0.00 71 1006.8
20260505102204 19 258 9.7 14.5 0.00 0.03 0.00 66 1006.9
20260505102104 19 257 9.7 14.5 0.00 0.03 0.00 65 1007.1
20260505102004 19 229 6.4 14.5 0.00 0.03 0.00 65 1006.9
20260505101704 21 164 4.8 8.0 0.00 0.03 18.77 58 1007.1
20260505101604 21 182 4.8 8.0 0.00 0.03 18.77 58 1007.0
20260505101504 21 182 6.4 8.0 0.00 0.03 18.77 58 1006.8
20260505101403 21 171 6.4 8.0 0.00 0.03 0.00 58 1006.8
20260505101355 21 171 6.4 8.0 0.00 0.03 0.00 58 1006.8
20260504221104 14 0 0.0 0.0 0.00 0.18 0.00 90 1008.1
20260504221004 14 0 0.0 0.0 0.00 0.18 0.00 90 1008.1
20260504220904 14 0 0.0 0.0 0.00 0.18 0.00 90 1008.2
20260504220804 14 270 0.0 4.8 0.00 0.18 0.00 90 1008.1
20260504220704 14 288 0.0 4.8 0.00 0.18 0.00 90 1008.2
20260504220604 14 303 1.6 4.8 0.00 0.18 0.00 90 1008.1
20260504220504 14 303 1.6 4.8 0.00 0.18 0.00 90 1008.1
20260504220404 14 303 1.6 4.8 0.00 0.18 0.00 90 1008.1
20260504220304 14 303 1.6 4.8 0.00 0.18 0.00 90 1008.1
20260504220203 14 303 1.6 4.8 0.00 0.18 0.00 90 1008.1
20260504220103 14 303 1.6 4.8 0.00 0.18 0.00 90 1008.1
20260504220047 14 305 1.6 4.8 0.00 0.18 0.00 90 1008.1
20260504215903 14 262 1.6 4.8 0.00 0.18 0.18 90 1008.1
20260504215803 14 257 1.6 4.8 0.00 0.18 0.18 90 1008.2
20260504215703 14 231 1.6 4.8 0.00 0.18 0.18 90 1008.2
20260504215603 14 208 1.6 3.2 0.00 0.18 0.18 90 1008.2
20260504215506 14 205 1.6 3.2 0.00 0.18 0.18 90 1008.3
20260504215404 14 215 1.6 6.4 0.00 0.18 0.18 90 1008.2
20260504215305 14 240 1.6 6.4 0.00 0.18 0.18 90 1008.2
20260504215204 14 240 1.6 6.4 0.00 0.18 0.18 90 1008.2
20260504215104 14 240 1.6 6.4 0.00 0.18 0.18 90 1008.2
20260504215004 14 250 1.6 6.4 0.00 0.18 0.18 89 1008.2
20260504214904 14 260 1.6 6.4 0.00 0.18 0.18 89 1008.2
20260504214804 14 262 1.6 6.4 0.00 0.18 0.18 89 1008.2
20260504214704 14 261 1.6 6.4 0.00 0.18 0.18 89 1008.2
20260504214604 14 261 1.6 6.4 0.00 0.18 0.18 89 1008.2
20260504214503 14 268 1.6 6.4 0.00 0.18 0.18 89 1008.1
20260504214403 14 285 0.0 6.4 0.00 0.18 0.18 89 1008.2
20260504214303 14 0 0.0 0.0 0.00 0.18 0.18 89 1008.3
20260504214203 14 225 0.0 3.2 0.00 0.18 0.18 89 1008.3
20260504214103 14 254 0.0 3.2 0.00 0.18 0.18 89 1008.4
20260504214003 14 256 0.0 3.2 0.00 0.18 0.18 89 1008.2
20260504213903 14 248 0.0 3.2 0.00 0.18 0.18 89 1008.2
20260504213803 14 240 1.6 3.2 0.00 0.18 0.18 89 1008.4
20260504213703 14 236 1.6 3.2 0.00 0.18 0.18 89 1008.4
20260504213603 14 224 1.6 3.2 0.00 0.18 0.18 89 1008.4
20260504213503 14 227 1.6 3.2 0.00 0.18 0.18 89 1008.3
20260504213404 14 225 1.6 3.2 0.00 0.18 0.18 88 1008.4
20260504213304 14 223 1.6 3.2 0.00 0.18 0.18 88 1008.4
20260504213204 14 223 1.6 3.2 0.00 0.18 0.18 88 1008.4
20260504213104 14 211 1.6 4.8 0.00 0.18 0.18 88 1008.3
20260504213004 14 202 1.6 4.8 0.00 0.18 0.18 88 1008.2
20260504212904 14 201 1.6 4.8 0.00 0.18 0.18 88 1008.4
20260504212804 14 200 1.6 4.8 0.00 0.18 0.18 88 1008.2
20260504212704 14 195 1.6 4.8 0.00 0.18 0.18 88 1008.2
20260504212604 14 202 1.6 4.8 0.00 0.18 0.18 88 1008.3
20260504212504 14 195 1.6 4.8 0.00 0.18 0.18 88 1008.2
20260504212403 14 190 1.6 4.8 0.00 0.18 0.18 88 1008.1
20260504212304 14 195 1.6 4.8 0.00 0.18 0.18 88 1008.2
20260504212203 14 195 1.6 4.8 0.00 0.18 0.18 88 1008.3
20260504212104 14 201 3.2 4.8 0.03 0.18 0.18 88 1008.4
20260504211703 14 247 0.0 4.8 0.03 0.18 0.18 87 1008.3
20260504211603 14 251 0.0 4.8 0.03 0.18 0.18 87 1008.2
20260504211503 14 251 0.0 4.8 0.03 0.18 0.18 87 1008.2
20260504211403 14 254 0.0 4.8 0.03 0.18 0.18 87 1008.2
20260504211303 14 270 0.0 6.4 0.03 0.18 0.18 87 1008.2
20260504211203 14 267 1.6 6.4 0.03 0.18 0.18 87 1008.1
20260504211103 14 253 1.6 6.4 0.03 0.18 0.18 87 1008.2
20260504211003 14 246 1.6 6.4 0.03 0.18 0.18 87 1008.2
20260504210903 14 235 1.6 6.4 0.03 0.18 0.18 87 1008.1
20260504210803 14 241 3.2 6.4 0.03 0.18 0.18 87 1008.3
20260504210704 14 246 3.2 6.4 0.03 0.18 0.18 86 1008.2
20260504210604 14 246 3.2 6.4 0.03 0.18 0.18 86 1008.2
20260504210504 15 243 4.8 9.7 0.03 0.18 0.18 86 1008.3
20260504210404 15 240 4.8 9.7 0.03 0.18 0.18 86 1008.2
20260504210304 15 235 6.4 9.7 0.03 0.18 0.18 86 1008.3
20260504210204 15 227 6.4 9.7 0.03 0.18 0.18 86 1008.4
20260504210104 15 225 6.4 9.7 0.03 0.18 0.18 86 1008.4
20260504210004 15 229 6.4 9.7 0.03 0.18 0.18 86 1008.4
20260504205904 15 237 6.4 9.7 0.03 0.18 0.18 86 1008.5
20260504205803 15 237 6.4 9.7 0.03 0.18 0.18 85 1008.6
20260504205704 15 232 6.4 9.7 0.03 0.18 0.18 85 1008.5
20260504205603 15 232 6.4 9.7 0.03 0.18 0.18 85 1008.7
20260504205503 15 229 6.4 9.7 0.03 0.18 0.18 85 1008.6
20260504205403 15 231 6.4 9.7 0.03 0.18 0.18 85 1008.6
20260504205203 15 237 6.4 8.0 0.03 0.18 0.18 85 1008.4
20260504205103 15 244 6.4 8.0 0.03 0.18 0.18 84 1008.5
20260504205003 15 240 6.4 8.0 0.03 0.18 0.18 84 1008.4
20260504204903 15 230 6.4 8.0 0.03 0.18 0.18 84 1008.4
20260504204803 15 229 6.4 8.0 0.03 0.18 0.18 84 1008.3
20260504204704 15 229 6.4 8.0 0.03 0.18 0.18 84 1008.4
20260504204604 15 223 6.4 8.0 0.03 0.18 0.18 84 1008.3
20260504204504 15 217 6.4 8.0 0.03 0.18 0.18 83 1008.4
20260504204404 15 213 4.8 8.0 0.03 0.18 0.18 83 1008.5
20260504204304 15 204 4.8 8.0 0.03 0.18 0.18 83 1008.5
20260504204204 15 204 3.2 8.0 0.03 0.18 0.18 83 1008.5
20260504204104 15 186 3.2 8.0 0.03 0.18 0.18 83 1008.4
20260504204004 15 177 3.2 6.4 0.03 0.18 0.18 83 1008.3
20260504203904 15 179 3.2 6.4 0.03 0.18 0.18 83 1008.4
20260504203804 15 168 3.2 8.0 0.03 0.18 0.18 83 1008.4
20260504203704 15 178 3.2 8.0 0.03 0.18 0.18 83 1008.4
20260504203604 15 190 3.2 8.0 0.03 0.18 0.18 82 1008.4
20260504203503 15 214 4.8 11.3 0.03 0.18 0.18 82 1008.4
20260504203403 15 228 4.8 11.3 0.03 0.18 0.18 82 1008.5
20260504203303 15 231 6.4 11.3 0.03 0.18 0.18 82 1008.4
20260504203204 15 238 6.4 11.3 0.03 0.18 0.18 82 1008.6
20260504202905 15 250 8.0 11.3 0.03 0.18 0.18 82 1008.6
20260504202803 15 257 8.0 11.3 0.03 0.18 0.18 82 1008.4
20260504202603 15 267 8.0 11.3 0.03 0.18 0.18 81 1008.5
20260504202503 15 266 8.0 11.3 0.03 0.18 0.18 81 1008.4
20260504202403 15 265 8.0 11.3 0.03 0.18 0.18 81 1008.6
20260504202304 15 270 8.0 9.7 0.03 0.18 0.18 81 1008.4
20260504202203 15 264 8.0 9.7 0.00 0.15 0.15 81 1008.5
20260504202104 15 260 8.0 9.7 0.00 0.15 0.15 81 1008.4
20260504201704 15 245 8.0 12.9 0.00 0.15 0.15 80 1008.7
20260504201604 15 252 8.0 12.9 0.00 0.15 0.15 80 1008.6
20260504201504 15 260 8.0 12.9 0.00 0.15 0.15 80 1008.7
20260504201404 15 262 8.0 12.9 0.00 0.15 0.15 80 1008.6
20260504201305 15 264 8.0 12.9 0.00 0.15 0.15 80 1008.7
20260504201204 15 266 8.0 12.9 0.00 0.15 0.15 80 1008.5
20260504201104 15 265 8.0 12.9 0.00 0.15 0.15 80 1008.6
20260504201004 15 270 6.4 12.9 0.00 0.15 0.15 80 1008.5
20260504200904 15 284 6.4 12.9 0.00 0.15 0.15 80 1008.6
20260504200805 15 288 6.4 8.0 0.00 0.15 0.15 80 1008.5
20260504200704 15 285 6.4 8.0 0.00 0.15 0.15 80 1008.6
20260504200604 15 280 6.4 8.0 0.00 0.15 0.15 79 1008.4
20260504200504 15 278 6.4 8.0 0.00 0.15 0.15 79 1008.4
20260504200404 15 280 6.4 8.0 0.00 0.15 0.15 79 1008.4
20260504200304 15 278 6.4 8.0 0.00 0.15 0.15 79 1008.4
20260504200203 15 275 6.4 12.9 0.00 0.15 0.15 79 1008.4
20260504200104 15 278 6.4 12.9 0.00 0.15 0.15 79 1008.4
20260504200004 15 281 8.0 12.9 0.00 0.15 0.15 79 1008.2
20260504195903 16 273 8.0 12.9 0.00 0.15 0.15 78 1008.2
20260504195804 16 268 8.0 12.9 0.00 0.15 0.15 78 1008.4
20260504195704 16 270 9.7 12.9 0.00 0.15 0.15 78 1008.3
20260504195603 16 264 9.7 12.9 0.00 0.15 0.15 78 1008.2
20260504195503 16 260 9.7 12.9 0.00 0.15 0.15 78 1008.3
20260504195403 16 258 9.7 12.9 0.00 0.15 0.15 78 1008.3
20260504195304 16 260 11.3 12.9 0.00 0.15 0.15 78 1008.4
20260504195203 16 260 11.3 12.9 0.00 0.15 0.15 78 1008.4
20260504195104 16 259 11.3 12.9 0.00 0.15 0.15 78 1008.3
20260504195004 16 258 11.3 12.9 0.00 0.15 0.15 78 1008.2
20260504194905 16 264 11.3 12.9 0.00 0.15 0.15 78 1008.2
20260504194804 16 272 11.3 12.9 0.00 0.15 0.15 78 1008.2
20260504194705 16 274 9.7 12.9 0.00 0.15 0.15 78 1008.2
20260504194604 16 277 9.7 12.9 0.00 0.15 0.15 78 1008.3
20260504194504 16 283 9.7 12.9 0.00 0.15 0.15 78 1008.1
20260504194404 16 285 8.0 12.9 0.00 0.15 0.15 78 1008.2
20260504194304 16 285 8.0 12.9 0.00 0.15 0.15 79 1008.1
20260504194204 16 286 8.0 12.9 0.00 0.15 0.15 79 1008.0
20260504194104 16 281 6.4 12.9 0.00 0.15 0.15 79 1007.9
20260504194003 16 278 6.4 12.9 0.00 0.15 0.15 80 1008.0
20260504193904 15 275 4.8 9.7 0.00 0.15 0.15 80 1007.9
20260504193803 15 261 4.8 6.4 0.00 0.15 0.15 80 1008.0
20260504193704 15 256 4.8 6.4 0.00 0.15 0.15 80 1007.9
20260504193603 15 264 3.2 6.4 0.00 0.15 0.15 80 1007.8
20260504193503 15 259 3.2 6.4 0.00 0.15 0.15 80 1007.9
20260504193403 15 258 3.2 6.4 0.00 0.15 0.15 80 1007.8
20260504193304 15 251 3.2 6.4 0.00 0.15 0.15 80 1007.8
20260504193206 15 242 3.2 6.4 0.00 0.15 0.15 80 1007.8
20260504193103 15 246 3.2 6.4 0.00 0.15 0.15 80 1007.8
20260504193003 15 247 3.2 6.4 0.00 0.15 0.15 81 1007.9
20260504192903 15 248 3.2 6.4 0.00 0.15 0.15 81 1007.8
20260504192804 15 252 3.2 6.4 0.00 0.15 0.15 81 1007.8
20260504192704 15 255 4.8 6.4 0.00 0.15 0.15 81 1007.8
20260504192604 15 246 4.8 6.4 0.00 0.15 0.15 81 1007.8
20260504192504 15 242 4.8 6.4 0.00 0.15 0.15 81 1007.8
20260504192404 15 239 4.8 6.4 0.00 0.15 0.15 81 1007.8
20260504192304 15 236 4.8 6.4 0.00 0.15 0.15 81 1007.7
20260504192204 15 241 4.8 6.4 0.00 0.15 0.15 81 1007.8
20260504192104 15 239 4.8 8.0 0.00 0.15 0.15 81 1007.6
20260504191704 15 241 6.4 8.0 0.00 0.15 0.15 81 1007.8
20260504191603 15 240 6.4 11.3 0.00 0.15 0.15 81 1007.6
20260504191504 15 235 6.4 11.3 0.00 0.15 0.15 81 1007.7
20260504191404 15 231 6.4 12.9 0.00 0.15 0.15 81 1007.6
20260504191303 15 231 8.0 12.9 0.00 0.15 0.15 81 1007.7
20260504191203 15 231 8.0 12.9 0.00 0.15 0.15 81 1007.6
20260504191103 15 231 8.0 12.9 0.00 0.15 0.15 81 1007.5
20260504191003 15 224 6.4 12.9 0.00 0.15 0.15 81 1007.5
20260504190903 15 220 8.0 12.9 0.00 0.15 0.15 81 1007.5
20260504190803 15 229 8.0 12.9 0.00 0.15 0.15 81 1007.4
20260504190703 15 230 8.0 12.9 0.00 0.15 0.15 81 1007.6
20260504190603 15 233 8.0 12.9 0.00 0.15 0.15 81 1007.6
20260504190504 15 237 8.0 12.9 0.00 0.15 0.15 81 1007.6
20260504190404 15 247 8.0 12.9 0.00 0.15 0.15 81 1007.5
20260504190304 15 246 8.0 12.9 0.00 0.15 0.15 81 1007.6
20260504190204 15 254 8.0 12.9 0.00 0.15 0.15 81 1007.5
20260504190104 15 256 9.7 12.9 0.00 0.15 0.15 81 1007.6
20260504190004 15 251 9.7 12.9 0.00 0.15 0.15 81 1007.6
20260504185904 15 253 9.7 12.9 0.00 0.15 0.15 81 1007.6
20260504185804 15 249 9.7 12.9 0.00 0.15 0.15 81 1007.6
20260504185704 15 247 9.7 12.9 0.00 0.15 0.15 81 1007.6
20260504185604 15 242 9.7 12.9 0.00 0.15 0.15 81 1007.5
20260504185504 15 235 9.7 12.9 0.00 0.15 0.15 81 1007.5
20260504185404 15 230 9.7 12.9 0.00 0.15 0.15 81 1007.5
20260504185304 15 242 9.7 12.9 0.00 0.15 0.15 81 1007.6
20260504185204 15 237 9.7 12.9 0.00 0.15 0.15 81 1007.6
20260504185103 15 242 9.7 12.9 0.00 0.15 0.15 81 1007.6
20260504185003 15 252 8.0 12.9 0.00 0.15 0.15 81 1007.5
20260504184904 15 260 8.0 12.9 0.00 0.15 0.15 81 1007.6
20260504184803 15 260 8.0 12.9 0.00 0.15 0.15 81 1007.5
20260504184703 15 266 8.0 12.9 0.00 0.15 0.15 81 1007.7
20260504184603 15 275 8.0 12.9 0.00 0.15 0.15 81 1007.5
20260504184504 15 282 8.0 12.9 0.00 0.15 0.15 81 1007.5
20260504184404 15 285 8.0 12.9 0.00 0.15 0.15 81 1007.6
20260504184304 15 280 8.0 14.5 0.00 0.15 0.15 81 1007.4
20260504184204 15 276 9.7 14.5 0.00 0.15 0.15 81 1007.5
20260504184104 15 279 9.7 14.5 0.00 0.15 0.15 81 1007.6
20260504184004 15 273 9.7 14.5 0.00 0.15 0.15 81 1007.6
20260504183904 15 270 9.7 14.5 0.00 0.15 0.15 81 1007.5
20260504183804 15 274 9.7 14.5 0.00 0.15 0.15 81 1007.4
20260504183704 15 270 9.7 14.5 0.00 0.15 0.15 81 1007.3
20260504183604 15 263 9.7 14.5 0.00 0.15 0.15 81 1007.5
20260504183504 15 263 11.3 14.5 0.00 0.15 0.15 81 1007.5
20260504183403 15 256 11.3 14.5 0.00 0.15 0.15 81 1007.3
20260504183303 15 254 9.7 14.5 0.00 0.15 0.15 80 1007.3
20260504183203 15 254 9.7 12.9 0.00 0.15 0.15 80 1007.4
20260504183103 15 254 9.7 12.9 0.00 0.15 0.15 80 1007.5
20260504183003 15 262 9.7 12.9 0.00 0.15 0.15 80 1007.3
20260504182903 15 261 9.7 12.9 0.00 0.15 0.15 80 1007.3
20260504182803 15 254 9.7 12.9 0.00 0.15 0.15 80 1007.4
20260504182703 15 259 9.7 12.9 0.00 0.15 0.15 80 1007.4
20260504182603 15 267 9.7 12.9 0.00 0.15 0.15 80 1007.5
20260504182504 15 256 8.0 12.9 0.00 0.15 0.15 80 1007.5
20260504182404 15 267 8.0 12.9 0.00 0.15 0.15 79 1007.4
20260504182304 15 300 8.0 12.9 0.00 0.15 0.15 79 1007.5
20260504182204 15 336 8.0 12.9 0.00 0.15 0.15 79 1007.5
20260504182104 15 333 9.7 12.9 0.00 0.15 0.15 79 1007.4
20260504181704 16 280 9.7 12.9 0.00 0.15 0.15 78 1007.5
20260504181604 16 278 11.3 14.5 0.00 0.15 0.15 78 1007.6
20260504181503 16 288 11.3 16.1 0.00 0.15 0.15 77 1007.5
20260504181404 16 298 11.3 16.1 0.00 0.15 0.15 77 1007.5
20260504181303 16 314 12.9 16.1 0.00 0.15 0.15 77 1007.6
20260504181203 16 326 12.9 16.1 0.00 0.15 0.15 77 1007.6
20260504181103 16 335 12.9 16.1 0.00 0.15 0.15 76 1007.6
20260504181003 16 347 12.9 16.1 0.00 0.15 0.15 76 1007.5
20260504180903 16 344 14.5 17.7 0.00 0.15 0.15 76 1007.6
20260504180803 16 334 14.5 17.7 0.00 0.15 0.15 76 1007.6
20260504180704 16 331 14.5 17.7 0.00 0.15 0.15 76 1007.5
20260504180605 16 334 14.5 17.7 0.00 0.15 0.15 76 1007.7
20260504180504 16 335 14.5 17.7 0.00 0.15 0.15 75 1007.5
20260504180404 16 326 12.9 17.7 0.00 0.15 0.15 75 1007.6
20260504180304 16 313 12.9 17.7 0.00 0.15 0.15 75 1007.5
20260504180204 16 294 11.3 17.7 0.00 0.15 0.15 75 1007.5
20260504180104 16 277 11.3 17.7 0.00 0.15 0.15 75 1007.8
20260504180004 16 256 9.7 17.7 0.00 0.15 0.15 75 1007.7
20260504175904 16 247 9.7 17.7 0.00 0.15 0.15 75 1007.7
20260504175804 16 249 8.0 12.9 0.00 0.15 0.15 75 1007.7
20260504175704 16 255 8.0 16.1 0.00 0.15 0.15 75 1007.7
20260504175603 16 265 9.7 16.1 0.00 0.15 0.15 75 1007.5
20260504175503 16 277 9.7 16.1 0.00 0.15 0.15 75 1007.7
20260504175403 16 288 9.7 16.1 0.00 0.15 0.15 74 1007.7
20260504175304 16 291 11.3 16.1 0.00 0.15 0.15 74 1007.6
20260504175203 16 308 11.3 16.1 0.00 0.15 0.15 74 1007.8
20260504175103 17 306 11.3 16.1 0.00 0.15 0.15 74 1007.7
20260504175003 17 308 11.3 16.1 0.00 0.15 0.15 74 1007.8
20260504174903 17 307 11.3 16.1 0.00 0.15 0.15 74 1007.8
20260504174804 17 296 11.3 16.1 0.00 0.15 0.15 74 1007.8
20260504174704 17 297 11.3 16.1 0.00 0.15 0.15 74 1007.7
20260504174604 17 280 9.7 12.9 0.00 0.15 0.15 74 1007.7
20260504174504 17 273 9.7 16.1 0.00 0.15 0.15 74 1007.7
20260504174404 17 265 9.7 16.1 0.00 0.15 0.15 73 1007.7
20260504174304 17 263 9.7 16.1 0.00 0.15 0.15 73 1007.8
20260504174204 17 256 9.7 16.1 0.00 0.15 0.15 73 1007.8
20260504174104 17 254 9.7 16.1 0.00 0.15 0.15 73 1007.8
20260504174004 17 244 9.7 16.1 0.00 0.15 0.15 73 1007.7
20260504173903 17 248 11.3 16.1 0.00 0.15 0.15 73 1007.7
20260504173803 17 249 11.3 16.1 0.00 0.15 0.15 73 1007.7
20260504173703 17 240 11.3 16.1 0.00 0.15 0.15 70 1007.7
20260504173603 17 239 11.3 16.1 0.00 0.15 0.15 70 1007.7
20260504173503 17 238 11.3 12.9 0.00 0.15 0.15 70 1007.7
20260504173403 17 241 11.3 12.9 0.00 0.15 0.15 70 1007.7
20260504173303 17 248 11.3 12.9 0.00 0.15 0.15 70 1007.8
20260504173203 17 253 11.3 12.9 0.00 0.15 0.15 70 1007.7
20260504173103 17 265 11.3 12.9 0.00 0.15 0.15 70 1007.8
20260504173003 17 277 11.3 12.9 0.00 0.15 0.15 70 1007.7
20260504172904 17 272 11.3 12.9 0.00 0.15 0.15 70 1007.7
20260504172804 17 276 11.3 12.9 0.00 0.15 0.15 70 1007.6
20260504172704 17 287 9.7 12.9 0.00 0.15 0.15 70 1007.8
20260504172604 17 299 9.7 12.9 0.00 0.15 0.15 70 1007.8
20260504172504 17 307 9.7 12.9 0.00 0.15 0.15 70 1007.8
20260504172404 17 316 9.7 12.9 0.00 0.15 0.15 70 1007.8
20260504172304 17 321 9.7 12.9 0.00 0.15 0.15 70 1007.6
20260504172204 17 311 9.7 12.9 0.00 0.15 0.15 70 1007.7
20260504172105 17 294 11.3 12.9 0.00 0.15 0.15 70 1007.6